Location: D�derode
(51.8092°N, 10.1065°E)
Time: 06:31:04
(UTC+00:00)

Cosmos 1943 Rocket - Pass Details

Date: 01 December 2020
Orbit: 811 x 845 km, 71.0° (Epoch: 23 January)

Event Time Altitude Azimuth Distance (km) Brightness Sun altitude
Rises 16:07:43 0° 330° (NNW) 3,357 5.4 -8.2°
Reaches altitude 10° 16:10:10 10° 332° (NNW) 2,425 4.6 -8.5°
Maximum altitude 16:15:43 71° 57° (ENE) 874 2.1 -9.3°
Drops below altitude 10° 16:21:17 10° 142° (SE) 2,433 4.4 -10.1°
Sets 16:23:44 0° 144° (SE) 3,368 5.2 -10.5°
